Lexington Weather

Lexington, Massachusetts, USA

39°F
3/30/2020 8:33am 
  • Lexington Conditions: Mist, Overcast
  • Temperature: 39.4°F / 4.1°C 
  • Dew Point: 38.7°F 
  • Relative Humidity: 97
  • Wind: Wind from NNE NNE 2 mph, 10-min avg: 2 mph, gust: 4 mph
  • Barometer: 29.96 in Steady
  • Visibility: 2 miles
  • Rain Today: 0.02 in
  •   

Regional Weather Roundup
for Boston / Norton, MA

        
000
ASUS41 KBOX 280104
RWRBOX

REGIONAL WEATHER ROUNDUP
NATIONAL WEATHER SERVICE BOSTON/NORTON MA
900 PM EDT FRI MAR 27 2020

NOTE:  "FAIR" INDICATES FEW OR NO CLOUDS BELOW 12,000 FEET WITH NO 
SIGNIFICANT WEATHER AND/OR OBSTRUCTIONS TO VISIBILITY.

MAZALL-280200-
EASTERN MASSACHUSETTS
  
CITY           SKY/WX    TMP DP  RH WIND       PRES   REMARKS
BOSTON         FAIR      51  18  27 N7        29.98R                  
BEVERLY        FAIR      50  18  28 N8        29.97R                  
LAWRENCE       FAIR      50  19  29 N8        30.00R                  
BEDFORD        FAIR      48  20  32 CALM      29.98R                  
BLUE HILL        N/A     50  16  25 N9        29.97R                  
NORWOOD        FAIR      46  22  38 CALM      29.98R                  
MARSHFIELD     FAIR      41  32  70 CALM      29.98R                  
PLYMOUTH       FAIR      42  29  59 SW3       29.99R                  
TAUNTON        FAIR      48  22  35 E3        29.98R                  
NEW BEDFORD    FAIR      48  31  51 NE3       29.99R                  
$$

MAZALL-280200-
CAPE COD AND THE ISLANDS
  
CITY           SKY/WX    TMP DP  RH WIND       PRES   REMARKS
FALMOUTH       CLEAR     45  25  45 E3        29.97R                  
HYANNIS        FAIR      43  29  57 CALM      29.97R                  
CHATHAM        FAIR      45  31  58 NE5       29.98R                  
PROVINCETOWN   FAIR      34  29  82 E5        29.99R WCI  30          
NANTUCKET      FAIR      40  30  67 N3        29.99R                  
MARTHAS VNYRD  FAIR      35  29  78 NE5       29.98R WCI  31          
$$
 
MAZALL-280200-
CENTRAL AND WESTERN MASSACHUSETTS
  
CITY           SKY/WX    TMP DP  RH WIND       PRES   REMARKS
WORCESTER      FAIR      50  16  25 N8        29.98R                  
FITCHBURG      FAIR      46  17  31 N3        30.00R                  
ORANGE         FAIR      44  26  49 CALM      30.00R                  
SPRINGFIELD    CLEAR     47  19  32 NW5       29.98R                  
WESTFIELD      FAIR      51  26  37 NW7       29.99R                  
NORTH ADAMS    FAIR      42  30  62 W6        30.01R                  
PITTSFIELD     FAIR      45  25  45 W5        29.99R                  
$$
 
RIZALL-280200-
RHODE ISLAND
  
CITY           SKY/WX    TMP DP  RH WIND       PRES   REMARKS
PROVIDENCE     FAIR      52  16  24 N7        29.98R                  
NEWPORT        FAIR      53  18  25 N9        29.97R                  
BLOCK ISLAND   FAIR      47  32  56 CALM      29.98R                  
SMITHFIELD     FAIR      49  15  25 N7        29.98R                  
WESTERLY       FAIR      52  24  33 CALM      29.99R                  
$$
 
CTZALL-280200-
CONNECTICUT
  
CITY           SKY/WX    TMP DP  RH WIND       PRES   REMARKS
BRADLEY INTL   FAIR      52  25  35 NW9       29.99R                  
HARTFORD       FAIR      56  25  30 NW3       29.99R                  
BRIDGEPORT     FAIR      56  18  22 N7        29.99R                  
DANBURY        FAIR      45  29  53 CALM      30.02R                  
GROTON         FAIR      52  20  28 N7        29.98R                  
NEW HAVEN      FAIR      56  22  26 N5        29.99R                  
CHESTER        FAIR      54  25  32 NW5       29.99R                  
MERIDEN        FAIR      49  29  46 W3        30.00R                  
WILLIMANTIC    FAIR      46  26  45 CALM      29.98R                  
OXFORD         FAIR      48  24  39 N7        30.01R                  
$$

MEZ002-015-021-024-NHZ003-005-008-011-012-014-VTZ005-008-280200-
NORTHERN NEW ENGLAND
  
CITY           SKY/WX    TMP DP  RH WIND       PRES   REMARKS
PORTLAND ME    FAIR      44  21  40 NW8       29.97R                  
BANGOR ME      CLOUDY    42  27  55 W8        29.92R                  
CONCORD NH     FAIR      46  19  34 NW6       29.99R                  
MANCHESTER NH  FAIR      51  19  28 N8        29.98R                  
NASHUA NH      FAIR      49  19  30 N5        30.01R                  
PORTSMOUTH NH  CLEAR     46  16  29 NW8       29.97R                  
JAFFREY NH     FAIR      46  26  45 VRB5      29.99R                  
KEENE NH       FAIR      45  26  47 CALM      30.02R                  
BURLINGTON VT  FAIR      42  19  39 N5        30.05R                  
MT. WASHINGTON FOG       16  16 100 NW67        N/A  VSB 0   WCI -11  
$$

NYZ052-076-280200-
EASTERN NEW YORK
  
CITY           SKY/WX    TMP DP  RH WIND       PRES   REMARKS
ALBANY         FAIR      49  29  46 W10       30.03R                  
NEW YORK CITY  FAIR      59  28  30 CALM      29.98R                  
$$
 
ANZALL-280200-
MARINE OBSERVATIONS
  
STATION/POSITION TIME  TEMP    WIND        PRES    VSBY  WAVE
                       AIR SEA DIR/SP/G                  HT/PER
                 (UTC) (F)     (DEG/KT/KT) (MB)    (MI)  (FT/S)
BOSTON BUOY      0050   47 43   10/  6/  8 1014.6R         4/10
BUZZARDS BAY     0000          180/  1/  3 1014.7R
NANTUCKET SOUND  0040                        N/A           1/ 6
MASS BAY-STELLWA 0004   48 42   20/ 10/ 12 1012.2R  1 7/8  5/11
ISLE OF SHOALS   0000   51     330/ 19/ 21 1013.7R
S OF BLOCK IS    0030      44                N/A           3/ 6
$$

......................KEY.........................
  SKY/WX - SKY CONDITION/PRESENT WEATHER
  TMP    - TEMPERATURE IN FAHRENHEIT
  DWPT   - DEWPOINT IN FAHRENHEIT
  RH     - RELATIVE HUMIDITY IN PERCENT
  WIND   - DIRECTION AND SPEED IN MPH
  PRES   - MEAN SEA LEVEL PRESSURE IN INCHES OF HG
  WCI    - WIND CHILL INDEX
  VSB    - VISIBILITY IN MILES
  HX     - HEAT INDEX
  TC     - TEMPERATURE IN CELSIUS
  VRB    - VARIABLE WIND DIRECTION
  N/A    - NOT AVAILABLE
  
      

Other recent Regional Weather Roundups

Mon Mar 30, 8:04am

Mon Mar 30, 7:04am

Mon Mar 30, 6:04am

Mon Mar 30, 5:04am

Mon Mar 30, 4:04am

Mon Mar 30, 3:05am

Mon Mar 30, 2:04am

Mon Mar 30, 1:04am

Mon Mar 30, 12:04am

Sun Mar 29, 11:04pm

Sun Mar 29, 10:05pm

Sun Mar 29, 9:04pm

Sun Mar 29, 8:04pm

Sun Mar 29, 7:04pm

Sun Mar 29, 6:04pm

Sun Mar 29, 5:05pm

Sun Mar 29, 4:04pm

Sun Mar 29, 3:04pm

Sun Mar 29, 2:04pm

Sun Mar 29, 1:05pm

Sun Mar 29, 12:04pm

Sun Mar 29, 11:04am

Sun Mar 29, 10:04am

Sun Mar 29, 9:04am

Sun Mar 29, 8:04am

Sun Mar 29, 7:04am

Sun Mar 29, 6:04am

Sun Mar 29, 5:04am

Sun Mar 29, 4:04am

Sun Mar 29, 3:04am

Sun Mar 29, 2:04am

Sun Mar 29, 1:04am

Sun Mar 29, 12:04am

Sat Mar 28, 11:05pm

Sat Mar 28, 10:04pm

Sat Mar 28, 9:04pm

Sat Mar 28, 8:04pm

Sat Mar 28, 7:04pm

Sat Mar 28, 6:04pm

Sat Mar 28, 5:05pm

Sat Mar 28, 4:04pm

Sat Mar 28, 3:04pm

Sat Mar 28, 2:04pm

Sat Mar 28, 1:05pm

Sat Mar 28, 12:04pm

Sat Mar 28, 11:04am

Sat Mar 28, 10:04am

Sat Mar 28, 9:04am

Sat Mar 28, 8:04am

Sat Mar 28, 7:04am

Sat Mar 28, 6:04am

Sat Mar 28, 5:04am

Sat Mar 28, 4:04am

Sat Mar 28, 3:04am

Sat Mar 28, 2:04am

Sat Mar 28, 1:04am

Sat Mar 28, 12:04am

Fri Mar 27, 11:04pm

Fri Mar 27, 10:04pm

Fri Mar 27, 8:04pm

Fri Mar 27, 7:05pm

Fri Mar 27, 6:04pm

Fri Mar 27, 5:05pm

Fri Mar 27, 4:05pm

Fri Mar 27, 3:04pm

Fri Mar 27, 2:05pm

Fri Mar 27, 1:04pm

Fri Mar 27, 12:04pm

Fri Mar 27, 11:04am

Fri Mar 27, 10:04am

Fri Mar 27, 9:04am

Meta data:

ID: 228f9a8c-97bf-48bc-a0b7-d2adefaa016b
Link: https://api.weather.gov/products/228f9a8c-97bf-48bc-a0b7-d2adefaa016b